Wind_Speed
18 18 17 18 18 18 18 18 17 16 16 15 15 15 16 17 18 19 20 20 20 20 19 18 17 16 15 14 13 12 12 11 11 10 10 9 8 7 5 4 3 3 3
16 16 15 14 14 14 14 14 14 13 13 12 12 13 13 15 16 17 17 18 18 18 18 17 17 16 15 13 12 11 11 10 10 9 9 9 8 8 7 5 3 2 1
12 12 11 11 10 10 10 10 10 10 10 10 10 10 11 12 13 14 15 16 16 16 16 16 15 15 14 13 12 10 10 9 9 8 8 7 7 7 7 6 4 3 2
10 8 8 8 8 8 8 8 9 9 9 8 8 8 8 9 10 11 13 14 14 15 15 15 14 13 13 12 11 10 9 8 8 8 7 7 6 6 7 6 5 4 3
7 6 6 7 7 7 7 7 8 8 8 7 7 7 7 7 9 10 11 12 13 14 14 14 13 13 11 10 9 9 8 8 8 8 8 7 6 6 6 6 5 4 3
5 4 5 6 6 5 5 6 6 6 6 6 6 6 6 7 7 8 10 11 13 14 14 13 13 12 11 10 9 8 7 7 8 8 8 7 6 6 6 5 4 4 3
3 3 3 4 3 3 3 3 4 4 4 5 5 5 6 6 7 8 9 10 12 14 14 14 13 11 10 10 9 8 7 7 7 8 8 7 6 6 7 6 5 5 5
4 4 4 3 3 3 3 2 2 2 3 3 4 5 5 5 6 7 8 9 11 13 14 14 14 12 10 9 9 8 7 7 8 8 8 7 7 7 8 8 8 7 8
6 6 6 5 6 6 5 4 3 2 1 2 3 4 5 5 5 6 7 9 10 12 14 14 15 14 12 10 9 9 9 9 9 9 9 8 8 8 9 9 10 9 9
8 8 7 7 8 8 7 6 6 5 4 4 5 6 7 7 7 7 8 9 10 12 13 14 15 15 14 12 12 11 11 11 10 10 10 9 9 9 10 10 11 11 11
10 10 10 9 9 10 10 9 8 8 8 8 8 9 10 10 9 9 9 9 10 11 12 13 14 15 14 14 14 13 13 12 12 12 12 11 11 11 11 12 12 12 12
11 12 11 11 11 11 12 11 11 11 11 12 13 13 13 12 11 11 11 10 10 11 12 13 13 14 15 15 15 15 14 14 14 14 14 13 13 13 13 13 13 13 13
13 13 12 12 13 13 13 14 14 15 15 16 16 16 14 13 12 12 12 11 11 11 12 12 13 14 15 16 16 16 16 16 16 16 16 15 15 15 14 14 15 14 13
14 14 14 14 14 15 15 16 17 17 17 17 17 15 14 14 13 13 13 12 12 13 13 13 14 14 15 16 17 17 18 18 18 19 19 18 17 16 16 16 16 15 14
17 17 17 17 17 17 18 18 18 18 18 17 16 15 15 15 15 14 14 14 14 14 14 15 15 15 16 18 18 18 19 19 20 21 22 22 20 19 18 18 18 17 17
21 21 20 20 20 21 22 22 22 22 21 20 19 19 18 18 17 17 17 16 16 16 17 17 17 17 18 20 21 21 21 21 21 22 23 24 23 22 21 20 20 19 19
25 24 24 25 25 26 26 27 27 26 26 25 24 23 22 21 20 19 19 18 18 18 19 20 20 20 21 22 23 23 24 24 24 24 24 25 26 25 24 23 22 22 22
28 27 28 29 29 31 31 32 31 31 30 29 28 27 25 24 22 21 21 21 20 20 21 22 23 23 23 24 25 26 26 26 26 26 26 27 28 28 28 27 26 25 24
30 30 31 31 33 34 35 35 35 35 34 33 32 31 28 27 25 24 23 23 23 23 24 25 26 26 26 27 28 28 29 28 29 28 28 28 29 30 30 30 29 28 27
33 33 33 33 35 37 37 37 37 39 39 38 37 35 33 29 28 27 26 26 26 26 27 28 29 30 31 32 32 31 31 32 31 31 31 30 30 30 31 32 31 30 29
34 33 33 35 37 37 37 38 39 42 43 43 42 39 36 33 31 30 29 29 29 30 30 32 34 34 34 37 37 35 34 35 34 34 33 33 32 31 31 32 32 32 31
35 34 35 36 37 38 38 38 41 43 45 45 44 43 40 37 35 32 31 31 32 32 33 35 37 37 37 40 41 41 37 36 37 37 36 35 34 33 32 32 32 32 31
34 34 35 36 38 40 41 42 42 43 44 44 43 42 39 36 33 31 31 31 32 32 34 36 38 40 41 41 43 44 43 38 38 38 38 37 36 35 34 33 32 32 32
35 36 37 38 39 41 42 43 43 42 42 41 38 37 36 34 32 30 30 30 31 33 35 37 40 42 43 43 44 44 45 43 40 38 38 38 37 36 35 34 32 33 33
42 42 42 42 42 43 43 43 42 40 39 38 36 35 34 32 30 30 31 31 33 35 37 39 41 43 44 45 44 44 44 43 42 39 36 37 37 36 36 35 34 34 34
49 49 48 47 46 45 45 43 40 39 37 35 33 33 32 32 31 32 33 35 36 38 39 41 42 43 43 43 43 42 42 41 39 38 36 35 36 36 37 37 35 35 35
Wind_Direction
99 100 98 98 96 94 91 89 85 80 74 69 64 60 57 54 50 47 45 44 43 42 42 43 45 48 49 50 52 55 57 58 57 54 53 54 54 54 60 76 104 133 144
96 100 100 97 94 91 90 88 85 81 76 71 65 59 54 51 46 42 40 39 38 37 36 37 39 41 44 46 46 47 47 48 50 51 51 53 52 50 50 52 61 75 133
95 96 96 93 89 86 83 81 79 76 74 71 66 58 51 46 41 36 31 30 29 29 28 28 31 34 38 42 43 42 38 34 34 37 40 41 44 45 44 43 41 37 26
90 87 84 82 78 73 70 70 69 67 66 64 60 53 46 40 34 29 24 20 19 19 19 19 22 26 30 34 38 39 34 27 22 22 23 23 27 34 38 38 37 34 25
79 69 63 64 65 64 64 65 66 64 62 57 51 44 36 32 28 24 19 14 10 9 10 11 12 16 20 23 27 31 29 21 13 11 15 17 14 12 17 23 26 23 17
56 47 47 50 53 57 60 62 62 62 60 52 41 30 23 23 23 21 16 12 8 5 3 3 4 6 10 13 14 15 16 12 3 1 9 19 14 0 354 357 0 355 346
3 358 15 22 25 31 39 44 46 48 46 40 31 20 15 16 19 17 13 11 7 4 0 358 357 356 358 3 4 2 360 358 352 350 358 10 10 358 347 338 335 329 321
299 311 319 326 322 320 325 340 5 20 35 41 33 21 14 10 7 6 8 6 4 1 358 355 352 349 346 347 349 350 344 340 338 337 341 350 354 353 347 341 335 325 316
281 293 295 289 289 289 290 290 296 311 345 5 1 357 351 344 341 340 347 352 354 354 353 351 349 346 339 333 331 335 333 326 324 322 324 329 333 337 339 338 335 329 320
274 282 286 284 283 282 282 280 276 277 285 302 316 323 323 319 316 315 325 338 344 348 347 346 345 343 337 328 322 321 322 320 319 315 313 313 314 319 324 326 326 323 317
273 276 278 278 280 280 279 279 276 276 279 289 300 304 304 301 300 302 312 325 335 342 343 341 340 338 334 328 320 315 313 313 314 313 308 303 300 302 308 312 314 315 313
272 274 274 272 274 275 276 278 278 279 282 286 291 297 294 290 286 289 299 312 324 332 336 338 334 332 329 324 318 312 306 303 304 306 304 299 294 292 294 300 304 308 309
270 270 270 271 272 273 273 275 278 279 281 284 288 291 288 282 279 282 290 301 312 322 327 330 331 328 327 324 317 312 304 296 293 296 298 295 292 290 290 293 297 301 303
267 267 269 270 271 271 273 275 276 278 280 282 286 287 284 280 277 279 284 292 302 310 317 320 325 326 325 326 321 314 307 297 291 289 291 290 289 289 288 288 290 294 296
266 266 267 268 271 273 274 275 275 276 277 278 280 281 281 280 280 281 283 288 296 301 308 313 316 318 319 319 317 315 312 303 291 287 284 284 284 285 285 285 286 289 291
267 267 268 268 270 272 274 276 275 275 275 274 274 275 277 278 280 282 284 287 294 299 301 305 307 310 312 314 314 313 311 307 297 288 284 281 281 282 283 283 283 284 286
268 269 270 271 271 271 272 273 274 274 275 276 274 273 275 277 280 283 285 287 291 295 298 298 298 301 305 308 309 309 308 307 303 296 288 282 279 278 280 281 281 281 280
267 268 269 270 271 271 271 271 272 273 274 275 275 274 275 277 278 281 283 286 290 292 294 293 293 294 297 299 302 303 303 303 303 300 293 285 279 276 276 276 277 278 277
264 266 268 269 269 269 270 272 272 272 273 273 274 274 274 275 276 277 280 283 287 289 289 290 289 289 291 293 296 297 297 298 299 298 294 288 281 276 274 273 273 275 275
262 265 267 269 270 269 267 268 271 272 271 270 271 272 272 272 274 277 280 282 285 286 287 288 288 289 290 291 292 293 293 294 294 293 291 288 283 278 274 272 270 271 273
260 261 265 267 269 269 268 267 269 269 268 268 269 269 269 269 272 276 279 281 284 285 286 287 287 288 290 290 291 290 291 291 290 289 288 286 283 280 276 272 269 269 271
256 259 264 269 272 272 271 270 268 268 268 267 264 265 266 268 270 273 276 279 281 282 283 284 285 286 288 290 291 290 289 288 287 286 286 284 281 279 276 272 269 269 270
260 266 269 271 271 272 271 269 268 267 271 270 266 264 265 268 269 274 278 280 281 282 282 283 284 286 288 289 290 290 289 287 284 284 283 280 279 277 274 272 269 269 268
271 273 273 272 272 271 270 267 266 266 268 270 267 266 267 271 275 277 279 281 281 281 282 284 286 288 289 289 289 289 289 288 285 282 280 277 275 273 271 268 267 267 267
274 274 274 274 272 271 269 265 263 265 267 268 268 270 274 276 278 280 280 281 281 282 284 286 288 289 289 289 289 288 287 286 285 283 278 274 272 270 268 267 265 264 264
274 275 276 274 272 271 269 268 268 266 267 269 271 272 273 276 278 279 279 280 281 284 287 289 291 291 291 291 290 288 286 285 283 280 277 272 268 266 265 265 265 264 264
Height
5915 5915 5916 5916 5915 5915 5914 5914 5914 5914 5915 5915 5915 5914 5914 5913 5913 5912 5911 5911 5911 5910 5910 5909 5908 5906 5905 5903 5902 5901 5900 5899 5898 5897 5897 5896 5895 5895 5894 5893 5893 5893 5893
5917 5917 5918 5918 5917 5916 5916 5916 5916 5916 5916 5916 5916 5916 5915 5915 5914 5913 5912 5912 5911 5911 5910 5909 5908 5907 5906 5904 5903 5902 5901 5900 5899 5898 5897 5896 5896 5895 5894 5894 5893 5893 5893
5919 5919 5919 5919 5918 5918 5917 5917 5917 5916 5917 5917 5917 5917 5916 5916 5915 5914 5913 5912 5911 5911 5910 5909 5908 5907 5906 5905 5904 5903 5902 5901 5900 5899 5897 5897 5896 5895 5894 5894 5893 5893 5893
5921 5921 5920 5920 5919 5919 5918 5918 5917 5917 5917 5917 5917 5917 5916 5916 5915 5914 5914 5913 5911 5910 5910 5909 5908 5907 5906 5905 5904 5903 5902 5901 5900 5899 5898 5897 5896 5895 5894 5894 5893 5893 5893
5922 5923 5922 5921 5920 5920 5919 5919 5918 5918 5918 5918 5917 5917 5916 5916 5915 5915 5914 5913 5911 5910 5909 5908 5908 5907 5906 5905 5904 5903 5902 5901 5900 5899 5898 5897 5895 5895 5894 5893 5893 5893 5892
5924 5924 5923 5922 5921 5921 5920 5919 5919 5918 5918 5918 5917 5917 5916 5916 5915 5914 5914 5913 5911 5910 5909 5908 5907 5906 5906 5905 5904 5903 5902 5901 5899 5898 5898 5897 5896 5894 5894 5893 5892 5892 5892
5925 5925 5924 5922 5922 5921 5920 5919 5919 5918 5918 5918 5917 5917 5916 5916 5915 5914 5914 5913 5911 5910 5908 5907 5906 5906 5905 5904 5903 5903 5902 5900 5899 5898 5897 5896 5895 5894 5893 5892 5891 5891 5891
5924 5924 5923 5922 5921 5921 5920 5919 5919 5918 5918 5918 5917 5917 5916 5916 5915 5914 5913 5912 5911 5910 5908 5907 5906 5905 5904 5903 5902 5902 5901 5900 5898 5897 5896 5895 5894 5894 5892 5891 5891 5890 5889
5923 5923 5922 5921 5921 5920 5919 5919 5918 5918 5918 5918 5917 5917 5916 5915 5914 5914 5913 5912 5910 5909 5907 5906 5905 5904 5903 5902 5901 5901 5900 5899 5898 5896 5895 5894 5893 5892 5891 5890 5889 5888 5888
5921 5921 5921 5920 5919 5919 5918 5918 5917 5917 5917 5917 5917 5916 5916 5915 5914 5913 5912 5911 5909 5908 5906 5905 5903 5902 5901 5900 5900 5899 5898 5897 5896 5895 5894 5893 5892 5891 5890 5889 5888 5887 5886
5919 5919 5919 5918 5918 5917 5917 5917 5916 5916 5916 5916 5916 5915 5915 5914 5913 5912 5911 5910 5908 5907 5905 5903 5902 5900 5899 5898 5898 5897 5896 5896 5895 5894 5893 5892 5890 5889 5888 5887 5886 5885 5884
5917 5917 5916 5916 5916 5915 5915 5915 5915 5915 5914 5914 5914 5913 5913 5912 5911 5910 5909 5908 5907 5905 5904 5902 5900 5899 5897 5896 5895 5894 5894 5893 5892 5891 5891 5890 5888 5887 5886 5885 5884 5883 5882
5914 5914 5914 5913 5913 5913 5913 5913 5913 5912 5912 5912 5911 5911 5910 5909 5909 5908 5907 5906 5905 5904 5902 5900 5899 5897 5895 5894 5893 5892 5891 5890 5889 5889 5888 5887 5886 5885 5884 5883 5882 5881 5880
5911 5911 5911 5911 5911 5911 5910 5910 5910 5909 5909 5909 5908 5907 5907 5906 5906 5905 5905 5904 5903 5901 5900 5898 5896 5895 5893 5892 5890 5889 5888 5887 5886 5885 5885 5884 5883 5882 5881 5881 5880 5879 5877
5908 5908 5908 5908 5908 5908 5907 5907 5906 5906 5906 5905 5905 5904 5904 5903 5902 5902 5901 5901 5900 5898 5897 5895 5894 5892 5890 5889 5887 5886 5884 5883 5882 5881 5881 5880 5880 5879 5878 5878 5877 5876 5874
5905 5904 5904 5904 5904 5904 5903 5903 5902 5902 5901 5901 5901 5900 5900 5899 5898 5898 5897 5896 5895 5894 5893 5892 5890 5889 5887 5886 5884 5882 5881 5879 5878 5877 5876 5875 5875 5874 5874 5873 5872 5872 5871
5900 5901 5900 5900 5900 5899 5898 5898 5897 5897 5896 5896 5895 5895 5895 5894 5894 5893 5892 5891 5890 5889 5888 5887 5886 5885 5883 5881 5880 5878 5876 5874 5873 5872 5871 5870 5869 5869 5869 5868 5868 5867 5867
5895 5895 5895 5895 5894 5894 5893 5892 5891 5891 5890 5889 5889 5889 5889 5888 5888 5887 5887 5886 5885 5884 5883 5882 5881 5880 5878 5876 5875 5873 5871 5870 5868 5866 5865 5864 5864 5863 5863 5863 5862 5862 5861
5888 5888 5888 5888 5888 5887 5886 5885 5885 5884 5883 5882 5882 5882 5882 5881 5881 5880 5880 5879 5879 5878 5877 5876 5875 5874 5873 5870 5869 5868 5866 5864 5862 5861 5859 5858 5857 5857 5856 5856 5856 5856 5856
5880 5880 5880 5879 5879 5878 5877 5877 5877 5876 5876 5875 5874 5874 5874 5874 5873 5873 5872 5872 5872 5871 5870 5869 5868 5867 5865 5863 5862 5861 5859 5858 5856 5854 5852 5851 5850 5850 5849 5849 5849 5849 5849
5872 5871 5871 5871 5870 5869 5869 5868 5868 5867 5867 5866 5866 5865 5865 5865 5865 5864 5864 5863 5863 5863 5862 5860 5859 5858 5857 5854 5853 5853 5852 5850 5849 5847 5845 5844 5843 5842 5842 5841 5842 5842 5842
5861 5862 5862 5862 5860 5860 5859 5858 5858 5857 5856 5856 5855 5855 5855 5855 5855 5855 5855 5854 5854 5854 5853 5852 5850 5849 5848 5845 5843 5842 5844 5843 5840 5838 5837 5836 5834 5834 5834 5833 5834 5834 5834
5850 5851 5852 5852 5851 5850 5850 5848 5847 5846 5845 5843 5842 5844 5845 5845 5845 5845 5845 5845 5845 5845 5844 5843 5841 5839 5839 5837 5833 5831 5831 5833 5831 5829 5827 5826 5826 5825 5825 5825 5825 5826 5826
5840 5841 5841 5841 5840 5840 5839 5837 5836 5835 5834 5833 5833 5833 5835 5835 5835 5836 5836 5837 5836 5836 5835 5834 5832 5830 5828 5827 5824 5821 5819 5819 5820 5820 5818 5816 5816 5816 5816 5816 5817 5817 5817
5831 5831 5831 5830 5830 5829 5828 5826 5823 5824 5824 5823 5823 5824 5825 5826 5827 5827 5828 5828 5828 5827 5826 5824 5822 5820 5817 5816 5814 5811 5809 5808 5807 5807 5808 5807 5805 5806 5806 5807 5808 5808 5808
5822 5822 5821 5820 5819 5817 5816 5814 5813 5814 5814 5814 5814 5815 5817 5818 5819 5819 5819 5819 5819 5818 5816 5815 5812 5810 5807 5805 5802 5800 5798 5797 5796 5795 5796 5796 5796 5796 5796 5797 5798 5799 5799